Location: Ravensburg
(47.7866°N, 9.6124°E)
Time: 02:43:44
(UTC+02:00)

Gurwin Techsat 1B - Pass Details

Date: 14 March 2026
Orbit: 809 x 812 km, 99.0° (Epoch: 14 April)

Event Time Altitude Azimuth Distance (km) Brightness Sun altitude
Rises 05:27:42 0° 16° (NNE) 3,341 12.2 -12.4°
Reaches altitude 10° 05:30:04 10° 19° (NNE) 2,405 11.5 -12.0°
Maximum altitude 05:35:22 71° 103° (ESE) 856 8.9 -11.2°
Drops below altitude 10° 05:40:39 10° 188° (S) 2,387 10.9 -10.3°
Sets 05:42:59 0° 191° (S) 3,314 11.6 -9.9°
